This is the latest recevied weather packets stored in our database for station/object KB3FKJ. If no packets are shown the sender has not sent any weather packets the latest 10 day(s).
| Time | Temp. | Humidity | Pressure | Rain* | Wind** | Luminosity | Snow |
|---|---|---|---|---|---|---|---|
| 1778096743 | 14.44° C | 86% | 1007.4 hPa | 0 mm | - | 120 W/m² | - |
| 1778096438 | 15° C | 86% | 1007.3 hPa | 0 mm | - | 116 W/m² | - |
| 1778096136 | 15° C | 86% | 1007.3 hPa | 0 mm | - | 208 W/m² | - |
| 1778095833 | 15° C | 86% | 1007.1 hPa | 0 mm | - | 160 W/m² | - |
| 1778095530 | 15° C | 85% | 1007.1 hPa | 0 mm | - | 90 W/m² | - |
| 1778095225 | 15° C | 84% | 1007.2 hPa | 0 mm | - | 110 W/m² | - |
| 1778094922 | 15.56° C | 85% | 1007 hPa | 0 mm | - | 100 W/m² | - |
| 1778094618 | 15.56° C | 86% | 1007.1 hPa | 0 mm | - | 110 W/m² | - |
| 1778094316 | 15.56° C | 87% | 1006.9 hPa | 0 mm | - | 90 W/m² | - |
| 1778094013 | 15.56° C | 88% | 1006.8 hPa | 0 mm | - | 90 W/m² | - |
| 1778093710 | 16.11° C | 87% | 1006.9 hPa | 0 mm | - | 52 W/m² | - |
| 1778093406 | 16.11° C | 87% | 1006.8 hPa | 0 mm | - | 196 W/m² | - |
| 1778093104 | 16.11° C | 89% | 1006.8 hPa | 0 mm | - | 230 W/m² | - |
| 1778092801 | 15.56° C | 89% | 1006.9 hPa | 0 mm | - | 240 W/m² | - |
| 1778092496 | 15° C | 90% | 1006.9 hPa | 0 mm | - | 161 W/m² | - |
| 1778092194 | 15° C | 92% | 1006.9 hPa | 0 mm | - | 135 W/m² | - |
| 1778091890 | 15° C | 93% | 1006.9 hPa | 0 mm | - | 145 W/m² | - |
| 1778091587 | 14.44° C | 92% | 1006.9 hPa | 0 mm | - | 79 W/m² | - |
| 1778091286 | 14.44° C | 93% | 1006.8 hPa | 0 mm | - | 91 W/m² | - |
| 1778090982 | 14.44° C | 94% | 1006.9 hPa | 0 mm | - | 86 W/m² | - |
| 1778090678 | 14.44° C | 95% | 1007 hPa | 0 mm | - | 69 W/m² | - |
| 1778090375 | 14.44° C | 95% | 1007 hPa | 0 mm | - | 117 W/m² | - |
| 1778090072 | 14.44° C | 96% | 1006.7 hPa | 1.27 mm | - | 111 W/m² | - |
| 1778089768 | 14.44° C | 96% | 1006.8 hPa | 1.27 mm | - | 94 W/m² | - |
| 1778089466 | 14.44° C | 96% | 1006.9 hPa | 0 mm | - | 77 W/m² | - |
* Rain latest hour (hover to see other rain measurements)
** Current wind speed in m/s (hover to see current wind gust speed)